Grand Forks AFB, ND

11:02 PM CST on November 19, 2017 (GMT -0600)
Grand Forks Air Force Base

Weather History for KRDR - January, 2013

Change the Weather History Date:

Wednesday, January 30, 2013

  Actual Average Record
Temperature  
Mean Temperature 2 °F -  
Max Temperature 10 °F 18 °F 38 °F (2016)
Min Temperature -6 °F 1 °F -36 °F (2004)
Degree Days  
Heating Degree Days 62    
Moisture  
Dew Point -2 °F    
Average Humidity 74    
Maximum Humidity 85    
Minimum Humidity 65    
Precipitation  
Precipitation 0.00 in - - ()
Sea Level Pressure  
Sea Level Pressure 29.95 in    
Wind  
Wind Speed 15 mph (NNW)    
Max Wind Speed 20 mph    
Max Gust Speed 25 mph    
Visibility 8 miles    
Events Snow    
Averages and records for this station are not official NWS values.
T = Trace of Precipitation, MM = Missing Value Source: NWS Daily Summary

Daily Weather History Graph

Daily Weather History Graph

Search for Another Location

Airport or City:

Trip Planner

Search our weather history database for the weather conditions in past years. The results will help you decide how hot, cold, wet, or windy it might be!

Date:

Astronomy

Jan. 30, 2013 Rise Set
Actual Time 7:59 AM CST 5:27 PM CST
Civil Twilight 7:25 AM CST 6:00 PM CST
Nautical Twilight 6:48 AM CST 6:37 PM CST
Astronomical Twilight 6:12 AM CST 7:14 PM CST
Moon 9:50 PM CST (1/30) 9:07 AM CST (1/30)
Length of Visible Light 10h 34m
Length of Day
9h 27m
Waning Gibbous, 87% of the Moon is Illuminated
Jan 30
Waning Gibbous
Feb 3
Last Quarter
Feb 10
New
Feb 17
First Quarter
Feb 25
Full

Hourly Weather History & Observations

Time (CST) Temp. Windchill Dew Point Humidity Pressure Visibility Wind Dir Wind Speed Gust Speed Precip Events Conditions
12:03 AM 10.4 °F -6.6 °F 6.8 °F 85% 30.00 in 6.0 mi North 16.1 mph - N/A Snow Light Snow
12:05 AM 10.4 °F -7.2 °F 6.8 °F 85% 30.00 in 5.0 mi North 17.3 mph - N/A Snow Light Snow
12:06 AM 10.4 °F -7.2 °F 6.8 °F 85% 30.00 in 5.0 mi North 17.3 mph - N/A Snow Light Snow
12:09 AM 10.4 °F -6.0 °F 6.8 °F 85% 30.00 in 5.0 mi North 15.0 mph - N/A Snow Light Snow
12:11 AM 10.4 °F -5.4 °F 5.0 °F 79% 30.00 in 5.0 mi North 13.8 mph - N/A Snow Light Snow
12:13 AM 10.4 °F -5.4 °F 5.0 °F 79% 30.00 in 6.0 mi North 13.8 mph - N/A Snow Light Snow
12:29 AM 10.4 °F -6.6 °F 5.0 °F 79% 30.00 in 10.0 mi North 16.1 mph - N/A   Overcast
12:38 AM 10.4 °F -7.2 °F 5.0 °F 79% 29.99 in 10.0 mi North 17.3 mph - N/A   Overcast
12:47 AM 10.4 °F -6.0 °F 5.0 °F 79% 29.99 in 9.0 mi North 15.0 mph - N/A Snow Light Snow
12:55 AM 9.9 °F -6.7 °F 5.2 °F 81% 29.99 in 7.0 mi North 15.0 mph - 0.00 in Snow Light Snow
1:01 AM 10.4 °F -6.0 °F 5.0 °F 79% 29.98 in 7.0 mi North 15.0 mph 21.9 mph N/A Snow Light Snow
1:02 AM 10.4 °F -6.6 °F 5.0 °F 79% 29.98 in 7.0 mi North 16.1 mph 23.0 mph N/A Snow Light Snow
1:09 AM 8.6 °F -8.9 °F 5.0 °F 85% 29.98 in 10.0 mi North 16.1 mph 23.0 mph N/A   Overcast
1:24 AM 8.6 °F -9.5 °F 3.2 °F 79% 29.98 in 10.0 mi North 17.3 mph 24.2 mph N/A   Overcast
1:31 AM 8.6 °F -9.5 °F 3.2 °F 79% 29.98 in 10.0 mi North 17.3 mph 24.2 mph N/A Snow Light Snow
1:44 AM 8.6 °F -8.9 °F 3.2 °F 79% 29.98 in 10.0 mi North 16.1 mph 24.2 mph N/A   Overcast
1:50 AM 8.6 °F -7.7 °F 1.4 °F 73% 29.98 in 10.0 mi North 13.8 mph 23.0 mph N/A   Overcast
1:55 AM 8.8 °F -10.3 °F 2.1 °F 74% 29.98 in 10.0 mi North 19.6 mph 24.2 mph 0.00 in   Overcast
2:10 AM 8.6 °F -9.5 °F 1.4 °F 73% 29.98 in 10.0 mi North 17.3 mph 25.3 mph N/A   Overcast
2:30 AM 8.6 °F -8.9 °F 1.4 °F 73% 29.97 in 10.0 mi North 16.1 mph 23.0 mph N/A   Overcast
2:36 AM 8.6 °F -7.7 °F 1.4 °F 73% 29.97 in 10.0 mi North 13.8 mph 23.0 mph N/A   Overcast
2:55 AM 8.6 °F -8.3 °F 2.3 °F 76% 29.98 in 10.0 mi North 15.0 mph - N/A   Overcast
3:00 AM 8.6 °F -7.7 °F 1.4 °F 73% 29.97 in 10.0 mi North 13.8 mph - N/A Snow Light Snow
3:06 AM 8.6 °F -7.0 °F 3.2 °F 79% 29.97 in 10.0 mi North 12.7 mph - N/A Snow Light Snow
3:54 AM 8.6 °F -7.7 °F 3.2 °F 79% 29.96 in 10.0 mi North 13.8 mph - N/A Snow Light Snow
3:55 AM 8.8 °F -6.8 °F 2.8 °F 77% 29.96 in 10.0 mi North 12.7 mph - 0.00 in Snow Light Snow
3:57 AM 8.6 °F -7.7 °F 3.2 °F 79% 29.96 in 10.0 mi North 13.8 mph - N/A   Overcast
4:17 AM 8.6 °F -5.5 °F 3.2 °F 79% 29.96 in 10.0 mi North 10.4 mph - N/A   Overcast
4:24 AM 8.6 °F -5.5 °F 3.2 °F 79% 29.96 in 10.0 mi North 10.4 mph - N/A   Overcast
4:55 AM 9.1 °F -6.4 °F 2.8 °F 76% 29.96 in 10.0 mi North 12.7 mph - 0.00 in   Overcast
5:01 AM 8.6 °F -7.7 °F 3.2 °F 79% 29.96 in 10.0 mi North 13.8 mph - N/A   Overcast
5:03 AM 8.6 °F -7.7 °F 3.2 °F 79% 29.96 in 10.0 mi North 13.8 mph - N/A   Overcast
5:40 AM 10.4 °F -6.0 °F 3.2 °F 73% 29.96 in 10.0 mi North 15.0 mph - N/A   Overcast
5:43 AM 8.6 °F -8.3 °F 3.2 °F 79% 29.96 in 10.0 mi North 15.0 mph - N/A   Overcast
5:55 AM 9.3 °F -8.0 °F 2.3 °F 73% 29.96 in 10.0 mi North 16.1 mph - N/A   Overcast
6:07 AM 8.6 °F -5.5 °F 3.2 °F 79% 29.96 in 10.0 mi North 10.4 mph - N/A   Overcast
6:19 AM 8.6 °F -7.0 °F 3.2 °F 79% 29.96 in 10.0 mi North 12.7 mph - N/A Snow Light Snow
6:21 AM 8.6 °F -5.5 °F 3.2 °F 79% 29.96 in 10.0 mi North 10.4 mph - N/A Snow Light Snow
6:23 AM 8.6 °F -5.5 °F 3.2 °F 79% 29.96 in 10.0 mi North 10.4 mph - N/A Snow Light Snow
6:55 AM 9.1 °F -4.9 °F 3.6 °F 78% 29.97 in 9.0 mi North 10.4 mph - 0.00 in Snow Light Snow
6:59 AM 8.6 °F -3.7 °F 3.2 °F 79% 29.97 in 6.0 mi North 8.1 mph - N/A Snow Light Snow
7:02 AM 8.6 °F -6.3 °F 3.2 °F 79% 29.97 in 6.0 mi North 11.5 mph - N/A Snow Light Snow
7:18 AM 8.6 °F -7.0 °F 1.4 °F 73% 29.97 in 10.0 mi North 12.7 mph - N/A Snow Light Snow
7:21 AM 8.6 °F -7.0 °F 1.4 °F 73% 29.97 in 10.0 mi NNE 12.7 mph - N/A Snow Light Snow
7:22 AM 8.6 °F -7.7 °F 1.4 °F 73% 29.97 in 10.0 mi North 13.8 mph - N/A   Overcast
7:32 AM 8.6 °F -7.7 °F 1.4 °F 73% 29.97 in 10.0 mi North 13.8 mph - N/A   Overcast
7:33 AM 8.6 °F -7.0 °F 1.4 °F 73% 29.97 in 10.0 mi North 12.7 mph - N/A Snow Light Snow
7:36 AM 8.6 °F -4.7 °F 3.2 °F 79% 29.97 in 10.0 mi North 9.2 mph - N/A Snow Light Snow
7:43 AM 8.6 °F -6.3 °F 3.2 °F 79% 29.97 in 10.0 mi North 11.5 mph - N/A   Overcast
7:46 AM 8.6 °F -7.0 °F 3.2 °F 79% 29.97 in 9.0 mi North 12.7 mph - N/A   Overcast
7:47 AM 8.6 °F -6.3 °F 3.2 °F 79% 29.96 in 9.0 mi North 11.5 mph - N/A Snow Light Snow
7:55 AM 8.8 °F -6.1 °F 3.2 °F 78% 29.97 in 6.0 mi NNE 11.5 mph - 0.00 in Snow Light Snow
7:56 AM 8.6 °F -7.0 °F 3.2 °F 79% 29.96 in 5.0 mi NNE 12.7 mph - N/A Snow Light Snow
8:02 AM 8.6 °F -7.7 °F 3.2 °F 79% 29.96 in 6.0 mi NNE 13.8 mph - N/A Snow Light Snow
8:05 AM 8.6 °F -7.7 °F 1.4 °F 73% 29.96 in 10.0 mi NNE 13.8 mph - N/A   Overcast
8:25 AM 8.6 °F -6.3 °F 1.4 °F 73% 29.96 in 10.0 mi North 11.5 mph - N/A   Overcast
8:50 AM 8.6 °F -7.0 °F 1.4 °F 73% 29.96 in 10.0 mi North 12.7 mph - N/A Snow Light Snow
8:55 AM 8.2 °F -6.0 °F 1.0 °F 72% 29.95 in 10.0 mi North 10.4 mph - 0.00 in Snow Light Snow
9:00 AM 8.6 °F -7.7 °F 1.4 °F 73% 29.95 in 10.0 mi North 13.8 mph - N/A Snow Light Snow
9:06 AM 8.6 °F -6.3 °F 1.4 °F 73% 29.95 in 10.0 mi North 11.5 mph - N/A Snow Light Snow
9:25 AM 8.6 °F -6.3 °F 3.2 °F 79% 29.95 in 2.5 mi NNW 11.5 mph - N/A Snow Light Snow
9:27 AM 8.6 °F -6.3 °F 3.2 °F 79% 29.94 in 1.8 mi NNW 11.5 mph - N/A Snow Light Snow
9:31 AM 6.8 °F -8.6 °F 3.2 °F 85% 29.94 in 1.2 mi NNW 11.5 mph - N/A Snow Light Snow
9:35 AM 6.8 °F -9.3 °F 1.4 °F 79% 29.94 in 1.5 mi NNW 12.7 mph - N/A Snow Light Snow
9:36 AM 6.8 °F -10.0 °F 1.4 °F 79% 29.94 in 1.8 mi NNW 13.8 mph - N/A Snow Light Snow
9:41 AM 6.8 °F -8.6 °F 1.4 °F 79% 29.94 in 3.0 mi NNW 11.5 mph - N/A Snow Light Snow
9:53 AM 6.8 °F -9.3 °F 1.4 °F 79% 29.94 in 9.0 mi NNW 12.7 mph - N/A Snow Light Snow
9:55 AM 7.3 °F -8.6 °F 1.2 °F 76% 29.94 in 8.0 mi NNW 12.7 mph - 0.00 in Snow Light Snow
9:57 AM 6.8 °F -10.0 °F 1.4 °F 79% 29.94 in 10.0 mi NNW 13.8 mph - N/A   Overcast
10:00 AM 6.8 °F -9.3 °F 1.4 °F 79% 29.94 in 10.0 mi NNW 12.7 mph - N/A   Overcast
10:06 AM 6.8 °F -9.3 °F -0.4 °F 72% 29.94 in 10.0 mi NNW 12.7 mph - N/A   Overcast
10:17 AM 6.8 °F -9.3 °F 1.4 °F 79% 29.94 in 10.0 mi NNW 12.7 mph - N/A   Overcast
10:23 AM 6.8 °F -9.3 °F -0.4 °F 72% 29.94 in 10.0 mi NNW 12.7 mph - N/A   Overcast
10:33 AM 6.8 °F -10.0 °F -0.4 °F 72% 29.94 in 10.0 mi NNW 13.8 mph - N/A   Overcast
10:36 AM 6.8 °F -10.0 °F -0.4 °F 72% 29.94 in 10.0 mi NNW 13.8 mph - N/A   Overcast
10:40 AM 6.8 °F -10.0 °F -0.4 °F 72% 29.94 in 10.0 mi NNW 13.8 mph - N/A   Overcast
10:46 AM 6.8 °F -10.0 °F -0.4 °F 72% 29.94 in 10.0 mi NNW 13.8 mph - N/A   Overcast
10:49 AM 6.8 °F -9.3 °F -0.4 °F 72% 29.94 in 10.0 mi NNW 12.7 mph - N/A Snow Light Snow
10:51 AM 6.8 °F -10.0 °F -0.4 °F 72% 29.94 in 10.0 mi NNW 13.8 mph - N/A Snow Light Snow
10:57 AM 6.8 °F -11.3 °F -0.4 °F 72% 29.94 in 9.0 mi NNW 16.1 mph - N/A Snow Light Snow
11:06 AM 6.8 °F -10.7 °F -0.4 °F 72% 29.94 in 7.0 mi NNW 15.0 mph - N/A Snow Light Snow
11:14 AM 6.8 °F -10.0 °F 1.4 °F 79% 29.93 in 2.5 mi NNW 13.8 mph - N/A Snow Light Snow
11:21 AM 6.8 °F -11.3 °F -0.4 °F 72% 29.93 in 3.0 mi NNW 16.1 mph - N/A Snow Light Snow
11:47 AM 6.8 °F -10.7 °F -0.4 °F 72% 29.93 in 5.0 mi NNW 15.0 mph - N/A   Haze
11:55 AM 6.1 °F -12.2 °F -0.6 °F 74% 29.93 in 5.0 mi NNW 16.1 mph - 0.00 in   Haze
12:07 PM 6.8 °F -10.0 °F -2.2 °F 67% 29.93 in 10.0 mi NNW 13.8 mph - N/A   Overcast
12:11 PM 6.8 °F -10.7 °F -2.2 °F 67% 29.92 in 10.0 mi NNW 15.0 mph - N/A   Overcast
12:34 PM 5.0 °F -13.0 °F -2.2 °F 72% 29.92 in 10.0 mi NNW 15.0 mph - N/A Snow Light Snow
12:37 PM 5.0 °F -13.0 °F -2.2 °F 72% 29.92 in 10.0 mi NNW 15.0 mph - N/A Snow Light Snow
12:41 PM 5.0 °F -13.0 °F -2.2 °F 72% 29.92 in 10.0 mi NNW 15.0 mph - N/A Snow Light Snow
12:43 PM 5.0 °F -12.3 °F -2.2 °F 72% 29.92 in 10.0 mi NNW 13.8 mph - N/A   Overcast
12:47 PM 5.0 °F -13.0 °F -2.2 °F 72% 29.92 in 10.0 mi NNW 15.0 mph - N/A Snow Light Snow
12:55 PM 5.4 °F -12.5 °F -2.6 °F 70% 29.91 in 10.0 mi NNW 15.0 mph - 0.00 in Snow Light Snow
12:56 PM 5.0 °F -11.6 °F -2.2 °F 72% 29.91 in 10.0 mi NNW 12.7 mph - N/A Snow Light Snow
12:59 PM 5.0 °F -12.3 °F -2.2 °F 72% 29.91 in 10.0 mi NNW 13.8 mph - N/A   Overcast
1:01 PM 5.0 °F -12.3 °F -2.2 °F 72% 29.91 in 10.0 mi North 13.8 mph - N/A Snow Light Snow
1:05 PM 5.0 °F -11.6 °F -2.2 °F 72% 29.91 in 10.0 mi NNW 12.7 mph - N/A Snow Light Snow
1:07 PM 5.0 °F -12.3 °F -2.2 °F 72% 29.91 in 10.0 mi NNW 13.8 mph - N/A Snow Light Snow
1:08 PM 5.0 °F -11.6 °F -2.2 °F 72% 29.91 in 10.0 mi NNW 12.7 mph - N/A Snow Light Snow
1:20 PM 5.0 °F -12.3 °F -2.2 °F 72% 29.91 in 10.0 mi NNW 13.8 mph - N/A Snow Light Snow
1:24 PM 5.0 °F -13.0 °F -2.2 °F 72% 29.91 in 10.0 mi NNW 15.0 mph - N/A Snow Light Snow
1:28 PM 5.0 °F -12.3 °F -2.2 °F 72% 29.91 in 10.0 mi NNW 13.8 mph - N/A Snow Light Snow
1:31 PM 5.0 °F -13.6 °F -2.2 °F 72% 29.91 in 10.0 mi NW 16.1 mph - N/A Snow Light Snow
1:33 PM 5.0 °F -14.2 °F -2.2 °F 72% 29.91 in 10.0 mi NW 17.3 mph - N/A Snow Light Snow
1:39 PM 5.0 °F -12.3 °F -2.2 °F 72% 29.91 in 10.0 mi NNW 13.8 mph - N/A Snow Light Snow
1:41 PM 5.0 °F -12.3 °F -2.2 °F 72% 29.91 in 10.0 mi NW 13.8 mph - N/A Snow Light Snow
1:46 PM 5.0 °F -13.0 °F -2.2 °F 72% 29.91 in 10.0 mi NNW 15.0 mph - N/A Snow Light Snow
1:49 PM 5.0 °F -12.3 °F -2.2 °F 72% 29.91 in 10.0 mi NW 13.8 mph - N/A Snow Light Snow
1:55 PM 4.8 °F -13.2 °F -2.9 °F 70% 29.91 in 10.0 mi NNW 15.0 mph - 0.00 in Snow Light Snow
2:03 PM 5.0 °F -13.0 °F -2.2 °F 72% 29.91 in 10.0 mi NNW 15.0 mph 20.7 mph N/A   Overcast
2:23 PM 3.2 °F -15.9 °F -4.0 °F 72% 29.91 in 10.0 mi NW 16.1 mph 21.9 mph N/A Snow Light Snow
2:28 PM 3.2 °F -16.5 °F -4.0 °F 72% 29.91 in 9.0 mi NW 17.3 mph 21.9 mph N/A Snow Light Snow
2:37 PM 3.2 °F -14.6 °F -4.0 °F 72% 29.91 in 2.5 mi NW 13.8 mph 21.9 mph N/A Snow Light Snow
2:42 PM 3.2 °F -14.6 °F -4.0 °F 72% 29.91 in 1.8 mi NNW 13.8 mph - N/A Snow Light Snow
2:45 PM 3.2 °F -15.9 °F -4.0 °F 72% 29.91 in 2.0 mi NW 16.1 mph - N/A Snow Light Snow
2:55 PM 2.3 °F -16.4 °F -4.5 °F 73% 29.91 in 2.0 mi NW 15.0 mph 21.9 mph 0.00 in Snow Light Snow
2:58 PM 1.4 °F -17.6 °F -5.8 °F 72% 29.91 in 3.0 mi NW 15.0 mph 21.9 mph N/A Snow Light Snow
3:11 PM 1.4 °F -19.4 °F -5.8 °F 72% 29.91 in 3.0 mi NNW 18.4 mph 23.0 mph N/A Snow Light Snow
3:29 PM 1.4 °F -18.2 °F -5.8 °F 72% 29.91 in 10.0 mi NNW 16.1 mph - N/A Snow Light Snow
3:42 PM 1.4 °F -17.6 °F -5.8 °F 72% 29.91 in 3.0 mi NNW 15.0 mph - N/A Snow Light Snow
3:48 PM 1.4 °F -17.6 °F -5.8 °F 72% 29.91 in 3.0 mi NW 15.0 mph - N/A Snow Light Snow
3:53 PM 1.4 °F -16.9 °F -5.8 °F 72% 29.91 in 9.0 mi NW 13.8 mph - N/A Snow Light Snow
3:55 PM 1.4 °F -16.9 °F -6.2 °F 71% 29.91 in 8.0 mi NW 13.8 mph - 0.00 in Snow Light Snow
4:02 PM 1.4 °F -16.9 °F -5.8 °F 72% 29.91 in 10.0 mi NNW 13.8 mph 19.6 mph N/A   Overcast
4:12 PM 1.4 °F -17.6 °F -5.8 °F 72% 29.91 in 10.0 mi NNW 15.0 mph - N/A   Overcast
4:14 PM 1.4 °F -17.6 °F -5.8 °F 72% 29.91 in 10.0 mi NNW 15.0 mph - N/A   Overcast
4:26 PM 1.4 °F -16.1 °F -5.8 °F 72% 29.91 in 10.0 mi NNW 12.7 mph - N/A Snow Light Snow
4:55 PM 0.9 °F -16.0 °F -6.7 °F 71% 29.91 in 10.0 mi NNW 11.5 mph - 0.00 in Snow Light Snow
4:56 PM 1.4 °F -16.9 °F -5.8 °F 72% 29.91 in 10.0 mi NNW 13.8 mph 18.4 mph N/A   Overcast
5:38 PM -0.4 °F -19.9 °F -7.6 °F 72% 29.92 in 10.0 mi NNW 15.0 mph - N/A Snow Light Snow
5:55 PM -0.2 °F -17.4 °F -7.8 °F 70% 29.93 in 10.0 mi NW 11.5 mph - 0.00 in Snow Light Snow
6:08 PM -0.4 °F -19.2 °F -7.6 °F 72% 29.93 in 9.0 mi NW 13.8 mph - N/A   Overcast
6:11 PM -0.4 °F -19.2 °F -7.6 °F 72% 29.94 in 9.0 mi NW 13.8 mph - N/A Snow Light Snow
6:12 PM -0.4 °F -19.2 °F -7.6 °F 72% 29.93 in 9.0 mi NNW 13.8 mph - N/A Snow Light Snow
6:25 PM -0.4 °F -20.5 °F -7.6 °F 72% 29.93 in 8.0 mi NNW 16.1 mph - N/A   Overcast
6:29 PM -0.4 °F -20.5 °F -7.6 °F 72% 29.93 in 8.0 mi NNW 16.1 mph - N/A Snow Light Snow
6:31 PM -0.4 °F -19.2 °F -7.6 °F 72% 29.94 in 8.0 mi NNW 13.8 mph - N/A Snow Light Snow
6:38 PM -0.4 °F -19.9 °F -7.6 °F 72% 29.93 in 8.0 mi NNW 15.0 mph - N/A Snow Light Snow
6:46 PM -0.4 °F -19.2 °F -7.6 °F 72% 29.94 in 8.0 mi NNW 13.8 mph - N/A Snow Light Snow
6:47 PM -0.4 °F -17.6 °F -7.6 °F 72% 29.94 in 8.0 mi NNW 11.5 mph - N/A Snow Light Snow
6:49 PM -0.4 °F -18.4 °F -7.6 °F 72% 29.94 in 8.0 mi NNW 12.7 mph - N/A Snow Light Snow
6:55 PM -1.1 °F -20.8 °F -8.1 °F 72% 29.94 in 8.0 mi NNW 15.0 mph - 0.00 in Snow Light Snow
6:57 PM -0.4 °F -19.9 °F -7.6 °F 72% 29.94 in 7.0 mi NNW 15.0 mph - N/A Snow Light Snow
7:07 PM -2.2 °F -22.9 °F -7.6 °F 78% 29.94 in 6.0 mi NNW 16.1 mph 23.0 mph N/A Snow Light Snow
7:22 PM -2.2 °F -23.5 °F -7.6 °F 78% 29.94 in 6.0 mi NNW 17.3 mph - N/A Snow Light Snow
7:24 PM -2.2 °F -22.9 °F -7.6 °F 78% 29.94 in 6.0 mi NNW 16.1 mph - N/A Snow Light Snow
7:32 PM -2.2 °F -22.9 °F -9.4 °F 71% 29.94 in 6.0 mi NNW 16.1 mph - N/A Snow Light Snow
7:39 PM -2.2 °F -23.5 °F -9.4 °F 71% 29.94 in 6.0 mi NNW 17.3 mph 21.9 mph N/A Snow Light Snow
7:55 PM -2.6 °F -24.6 °F -9.4 °F 73% 29.94 in 7.0 mi NNW 18.4 mph - 0.00 in   Overcast
7:57 PM -2.2 °F -21.5 °F -9.4 °F 71% 29.94 in 7.0 mi NNW 13.8 mph - N/A Snow Light Snow
8:16 PM -4.0 °F -25.8 °F -9.4 °F 78% 29.94 in 7.0 mi NNW 17.3 mph 23.0 mph N/A   Overcast
8:17 PM -4.0 °F -26.4 °F -9.4 °F 78% 29.95 in 7.0 mi NNW 18.4 mph 23.0 mph N/A Snow Light Snow
8:23 PM -4.0 °F -24.5 °F -11.2 °F 71% 29.94 in 7.0 mi NNW 15.0 mph 23.0 mph N/A Snow Light Snow
8:40 PM -4.0 °F -24.5 °F -11.2 °F 71% 29.95 in 9.0 mi NNW 15.0 mph - N/A Snow Light Snow
8:55 PM -4.0 °F -25.2 °F -10.8 °F 72% 29.94 in 10.0 mi NNW 16.1 mph 19.6 mph 0.00 in Snow Light Snow
8:59 PM -4.0 °F -23.7 °F -11.2 °F 71% 29.94 in 10.0 mi NNW 13.8 mph - N/A   Overcast
9:01 PM -4.0 °F -23.0 °F -11.2 °F 71% 29.95 in 9.0 mi NW 12.7 mph - N/A   Overcast
9:14 PM -4.0 °F -25.2 °F -11.2 °F 71% 29.95 in 10.0 mi NW 16.1 mph - N/A   Overcast
9:55 PM -4.7 °F -25.4 °F -11.7 °F 72% 29.96 in 10.0 mi NNW 15.0 mph - 0.00 in   Overcast
10:16 PM -5.8 °F -25.2 °F -13.0 °F 71% 29.96 in 10.0 mi NNW 12.7 mph - N/A   Overcast
10:30 PM -5.8 °F -26.8 °F -13.0 °F 71% 29.96 in 10.0 mi NNW 15.0 mph 21.9 mph N/A   Overcast
10:41 PM -5.8 °F -27.5 °F -13.0 °F 71% 29.97 in 10.0 mi NNW 16.1 mph - N/A   Overcast
10:53 PM -5.8 °F -26.8 °F -13.0 °F 71% 29.97 in 10.0 mi NNW 15.0 mph - N/A   Overcast
10:55 PM -5.1 °F -25.9 °F -12.5 °F 70% 29.97 in 10.0 mi NNW 15.0 mph - N/A   Overcast
10:57 PM -4.0 °F -25.2 °F -13.0 °F 65% 29.97 in 10.0 mi NNW 16.1 mph - N/A   Overcast
11:02 PM -4.0 °F -25.2 °F -13.0 °F 65% 29.97 in 10.0 mi NNW 16.1 mph - N/A Snow Light Snow
11:19 PM -5.8 °F -27.5 °F -13.0 °F 71% 29.97 in 10.0 mi NNW 16.1 mph - N/A Snow Light Snow
11:28 PM -5.8 °F -28.2 °F -13.0 °F 71% 29.97 in 10.0 mi NNW 17.3 mph 24.2 mph N/A   Overcast
11:49 PM -5.8 °F -28.8 °F -14.8 °F 65% 29.98 in 10.0 mi NNW 18.4 mph - N/A   Overcast
11:55 PM -6.5 °F -28.4 °F -14.3 °F 69% 29.98 in 10.0 mi NNW 16.1 mph - 0.00 in   Overcast